,,Stat5,,Stat1,,Stat2,,Stat3,,Stat4,,Wind1,,Wind1,
time,status,PA1M_AVG,status,PR1M_SUM,status,RH1M_AVG,status,SR1M_AVG,status,TA1M_AVG,status,W1dAve1m,status,W1sAve1m,
2000-07-08, 00:00:00,VALID,917.805,VALID,0,VALID,92.7038,VALID,-0.0509425,VALID,17.6551,VALID,180,VALID,0,
2000-07-08, 00:01:00,VALID,917.791,VALID,0,VALID,93.0878,VALID,-0.0509425,VALID,17.6362,VALID,180,VALID,0,
2000-07-08, 00:02:00,VALID,917.776,VALID,0,VALID,93.9042,VALID,-0.0169808,VALID,17.6521,VALID,180,VALID,0,
2000-07-08, 00:03:00,VALID,917.759,VALID,0,VALID,93.8991,VALID,-0.0169808,VALID,17.6814,VALID,180,VALID,0,
2000-07-08, 00:04:00,VALID,917.762,VALID,0,VALID,93.847,VALID,-0.0509425,VALID,17.7072,VALID,180,VALID,0,
2000-07-08, 00:05:00,VALID,917.777,VALID,0,VALID,93.8597,VALID,-0.0679233,VALID,17.7331,VALID,181,VALID,0.0466747,
2000-07-08, 00:06:00,VALID,917.765,VALID,0,VALID,93.7656,VALID,-0.0679233,VALID,17.791,VALID,182,VALID,0.0810268,
2000-07-08, 00:07:00,VALID,917.773,VALID,0,VALID,92.7674,VALID,-0.0339617,VALID,17.8791,VALID,184,VALID,0,
2000-07-08, 00:08:00,VALID,917.789,VALID,0,VALID,92.2791,VALID,-0.0849042,VALID,17.9045,VALID,189,VALID,0,
2000-07-08, 00:09:00,VALID,917.784,VALID,0,VALID,91.9968,VALID,-0.0679233,VALID,17.8879,VALID,201,VALID,0,
2000-07-08, 00:10:00,VALID,917.763,VALID,0,VALID,92.1595,VALID,-0.0679233,VALID,17.8103,VALID,216,VALID,0.598184,
2000-07-08, 00:11:00,VALID,917.772,VALID,0,VALID,92.5512,VALID,-0.0679233,VALID,17.7098,VALID,222,VALID,0.495888,
2000-07-08, 00:12:00,VALID,917.783,VALID,0,VALID,92.2638,VALID,-0.101885,VALID,17.5651,VALID,218,VALID,0.00477431,
2000-07-08, 00:13:00,VALID,917.783,VALID,0,VALID,92.6962,VALID,-0.101885,VALID,17.5266,VALID,218,VALID,0.0373733,
2000-07-08, 00:14:00,VALID,917.763,VALID,0,VALID,93.964,VALID,-0.0509425,VALID,17.4883,VALID,225,VALID,0.448661,
2000-07-08, 00:15:00,VALID,917.739,VALID,0,VALID,94.1687,VALID,-0.0679233,VALID,17.4459,VALID,211,VALID,0,
2000-07-08, 00:16:00,VALID,917.719,VALID,0,VALID,94.0491,VALID,-0.0679233,VALID,17.3845,VALID,210,VALID,0,
2000-07-08, 00:17:00,VALID,917.72,VALID,0,VALID,94.0174,VALID,-0.0679233,VALID,17.3328,VALID,210,VALID,0,
2000-07-08, 00:18:00,VALID,917.704,VALID,0,VALID,94.7345,VALID,-0.0509425,VALID,17.3031,VALID,213,VALID,0,
2000-07-08, 00:19:00,VALID,917.674,VALID,0,VALID,95.5929,VALID,-0.0339617,VALID,17.3165,VALID,214,VALID,0,
2000-07-08, 00:20:00,VALID,917.67,VALID,0,VALID,96.0278,VALID,-0.0679233,VALID,17.3619,VALID,213,VALID,0,
2000-07-08, 00:21:00,VALID,917.659,VALID,0,VALID,95.7531,VALID,-0.0679233,VALID,17.3845,VALID,208,VALID,0,
2000-07-08, 00:22:00,VALID,917.654,VALID,0,VALID,94.657,VALID,-0.0679233,VALID,17.3617,VALID,198,VALID,0,
2000-07-08, 00:23:00,VALID,917.643,VALID,0,VALID,94.2615,VALID,-0.0169808,VALID,17.3035,VALID,181,VALID,0,
2000-07-08, 00:24:00,VALID,917.643,VALID,0,VALID,94.835,VALID,-0.0509425,VALID,17.2424,VALID,180,VALID,0,
2000-07-08, 00:25:00,VALID,917.641,VALID,0,VALID,95.027,VALID,-0.0679233,VALID,17.2101,VALID,180,VALID,0,
2000-07-08, 00:26:00,VALID,917.631,VALID,0,VALID,95.0893,VALID,-0.0509425,VALID,17.1679,VALID,180,VALID,0,
2000-07-08, 00:27:00,VALID,917.632,VALID,0,VALID,95.3869,VALID,-0.0509425,VALID,17.158,VALID,180,VALID,0,
2000-07-08, 00:28:00,VALID,917.618,VALID,0,VALID,95.851,VALID,-0.0509425,VALID,17.1649,VALID,180,VALID,0,
2000-07-08, 00:29:00,VALID,917.619,VALID,0,VALID,96.0875,VALID,-0.0679233,VALID,17.1714,VALID,180,VALID,0,
2000-07-08, 00:30:00,VALID,917.61,VALID,0,VALID,95.9922,VALID,-0.0679233,VALID,17.1811,VALID,180,VALID,0,
2000-07-08, 00:31:00,VALID,917.588,VALID,0,VALID,96.0112,VALID,-0.101885,VALID,17.1912,VALID,180,VALID,0,
2000-07-08, 00:32:00,VALID,917.593,VALID,0,VALID,96.3686,VALID,-0.0509425,VALID,17.2424,VALID,180,VALID,0,
2000-07-08, 00:33:00,VALID,917.59,VALID,0,VALID,95.9337,VALID,-0.0679233,VALID,17.2846,VALID,184,VALID,0,
2000-07-08, 00:34:00,VALID,917.581,VALID,0,VALID,95.4594,VALID,-0.0679233,VALID,17.3074,VALID,198,VALID,0,
2000-07-08, 00:35:00,VALID,917.575,VALID,0,VALID,94.7829,VALID,-0.101885,VALID,17.2878,VALID,202,VALID,0,
2000-07-08, 00:36:00,VALID,917.576,VALID,0,VALID,94.718,VALID,-0.0849042,VALID,17.2493,VALID,234,VALID,0,
2000-07-08, 00:37:00,VALID,917.576,VALID,0,VALID,95.4441,VALID,-0.101885,VALID,17.2364,VALID,249,VALID,0,
2000-07-08, 00:38:00,VALID,917.574,VALID,0,VALID,95.8141,VALID,-0.0849042,VALID,17.2527,VALID,247,VALID,0,
2000-07-08, 00:39:00,VALID,917.579,VALID,0,VALID,94.3988,VALID,-0.0509425,VALID,17.1813,VALID,246,VALID,0,
2000-07-08, 00:40:00,VALID,917.579,VALID,0,VALID,95.3754,VALID,-0.0509425,VALID,17.1724,VALID,246,VALID,0,
2000-07-08, 00:41:00,VALID,917.571,VALID,0,VALID,96.0087,VALID,0.0169808,VALID,17.1675,VALID,246,VALID,0,
2000-07-08, 00:42:00,VALID,917.568,VALID,0,VALID,96.2325,VALID,0.0339617,VALID,17.1834,VALID,246,VALID,0,
2000-07-08, 00:43:00,VALID,917.536,VALID,0,VALID,96.5084,VALID,0.0339617,VALID,17.1867,VALID,246,VALID,0,
2000-07-08, 00:44:00,VALID,917.525,VALID,0,VALID,95.2292,VALID,0.0339617,VALID,17.1445,VALID,246,VALID,0,
2000-07-08, 00:45:00,VALID,917.517,VALID,0,VALID,95.4339,VALID,0.0339617,VALID,17.096,VALID,246,VALID,0,
2000-07-08, 00:46:00,VALID,917.516,VALID,0,VALID,95.2279,VALID,0.0339617,VALID,17.048,VALID,246,VALID,0,
2000-07-08, 00:47:00,VALID,917.516,VALID,0,VALID,95.8739,VALID,0.0509425,VALID,17.0155,VALID,246,VALID,0,
2000-07-08, 00:48:00,VALID,917.524,VALID,0,VALID,96.1765,VALID,0,VALID,16.9862,VALID,246,VALID,0,
2000-07-08, 00:49:00,VALID,917.542,VALID,0,VALID,96.7221,VALID,0.0679233,VALID,17.0185,VALID,246,VALID,0,
2000-07-08, 00:50:00,VALID,917.544,VALID,0,VALID,96.7119,VALID,0.0339617,VALID,17.0317,VALID,246,VALID,0,
2000-07-08, 00:51:00,VALID,917.549,VALID,0,VALID,96.834,VALID,0.0339617,VALID,17.0646,VALID,226,VALID,0,
2000-07-08, 00:52:00,VALID,917.532,VALID,0,VALID,96.3228,VALID,0.0169808,VALID,17.0672,VALID,162,VALID,0,
2000-07-08, 00:53:00,VALID,917.512,VALID,0,VALID,95.481,VALID,0,VALID,17.0254,VALID,149,VALID,0,
2000-07-08, 00:54:00,VALID,917.489,VALID,0,VALID,95.219,VALID,0.0169808,VALID,16.9733,VALID,149,VALID,0,
2000-07-08, 00:55:00,VALID,917.471,VALID,0,VALID,95.7595,VALID,0.0339617,VALID,16.9542,VALID,149,VALID,0,
2000-07-08, 00:56:00,VALID,917.463,VALID,0,VALID,96.3012,VALID,-0.0509425,VALID,16.9778,VALID,149,VALID,0,
2000-07-08, 00:57:00,VALID,917.457,VALID,0,VALID,96.4805,VALID,-0.0339617,VALID,16.9882,VALID,149,VALID,0,
2000-07-08, 00:58:00,VALID,917.456,VALID,0,VALID,96.5758,VALID,-0.0679233,VALID,16.9912,VALID,149,VALID,0,
2000-07-08, 00:59:00,VALID,917.466,VALID,0,VALID,96.0888,VALID,-0.0679233,VALID,16.9425,VALID,149,VALID,0,
2000-07-08, 01:00:00,VALID,917.466,VALID,0,VALID,96.2083,VALID,-0.0849042,VALID,16.9201,VALID,149,VALID,0,
2000-07-08, 01:01:00,VALID,917.465,VALID,0,VALID,96.2846,VALID,-0.101885,VALID,16.8911,VALID,149,VALID,0,
2000-07-08, 01:02:00,VALID,917.48,VALID,0,VALID,96.2617,VALID,-0.0679233,VALID,16.8584,VALID,149,VALID,0,
2000-07-08, 01:03:00,VALID,917.475,VALID,0,VALID,96.4894,VALID,-0.0849042,VALID,16.8713,VALID,149,VALID,0,
2000-07-08, 01:04:00,VALID,917.47,VALID,0,VALID,97.0005,VALID,-0.0509425,VALID,16.9135,VALID,149,VALID,0,
2000-07-08, 01:05:00,VALID,917.451,VALID,0,VALID,96.9891,VALID,-0.0509425,VALID,16.9458,VALID,149,VALID,0,
2000-07-08, 01:06:00,VALID,917.439,VALID,0,VALID,96.9306,VALID,-0.0849042,VALID,16.988,VALID,149,VALID,0,
2000-07-08, 01:07:00,VALID,917.428,VALID,0,VALID,96.057,VALID,-0.0849042,VALID,16.975,VALID,149,VALID,0,
2000-07-08, 01:08:00,VALID,917.416,VALID,0,VALID,96.4042,VALID,-0.101885,VALID,16.9783,VALID,149,VALID,0,
2000-07-08, 01:09:00,VALID,917.402,VALID,0,VALID,97.0984,VALID,-0.0679233,VALID,17.0332,VALID,149,VALID,0,
2000-07-08, 01:10:00,VALID,917.402,VALID,0,VALID,97.1697,VALID,-0.0849042,VALID,17.0719,VALID,149,VALID,0,
2000-07-08, 01:11:00,VALID,917.39,VALID,0,VALID,96.4054,VALID,0,VALID,17.0351,VALID,149,VALID,0,
2000-07-08, 01:12:00,VALID,917.38,VALID,0,VALID,95.6997,VALID,0,VALID,16.9738,VALID,149,VALID,0,
2000-07-08, 01:13:00,VALID,917.38,VALID,0,VALID,95.6832,VALID,0.0339617,VALID,16.8993,VALID,149,VALID,0,
2000-07-08, 01:14:00,VALID,917.378,VALID,0,VALID,96.4054,VALID,0.0339617,VALID,16.9029,VALID,149,VALID,0,
2000-07-08, 01:15:00,VALID,917.354,VALID,0,VALID,96.8289,VALID,0.0169808,VALID,16.9088,VALID,148,VALID,0,
2000-07-08, 01:16:00,VALID,917.334,VALID,0,VALID,97.0501,VALID,0,VALID,16.9578,VALID,139,VALID,0,
2000-07-08, 01:17:00,VALID,917.299,VALID,0,VALID,96.8632,VALID,0,VALID,16.9899,VALID,143,VALID,0,
2000-07-08, 01:18:00,VALID,917.284,VALID,0,VALID,96.1536,VALID,0.0509425,VALID,17.0026,VALID,143,VALID,0,
2000-07-08, 01:19:00,VALID,917.261,VALID,0,VALID,95.6298,VALID,0.0509425,VALID,16.9865,VALID,143,VALID,0,
2000-07-08, 01:20:00,VALID,917.248,VALID,0,VALID,95.4937,VALID,0.0509425,VALID,16.9766,VALID,143,VALID,0,
2000-07-08, 01:21:00,VALID,917.221,VALID,0,VALID,95.6094,VALID,0.0339617,VALID,16.98,VALID,143,VALID,0,
2000-07-08, 01:22:00,VALID,917.215,VALID,0,VALID,95.5471,VALID,0.0509425,VALID,16.9738,VALID,143,VALID,0,
2000-07-08, 01:23:00,VALID,917.211,VALID,0,VALID,95.6946,VALID,0,VALID,16.9834,VALID,143,VALID,0,
2000-07-08, 01:24:00,VALID,917.196,VALID,0,VALID,95.5662,VALID,0.0339617,VALID,16.974,VALID,143,VALID,0,
2000-07-08, 01:25:00,VALID,917.18,VALID,0,VALID,95.6603,VALID,0.0169808,VALID,16.9576,VALID,143,VALID,0,
2000-07-08, 01:26:00,VALID,917.18,VALID,0,VALID,95.2699,VALID,-0.0169808,VALID,16.9324,VALID,143,VALID,0,
2000-07-08, 01:27:00,VALID,917.167,VALID,0,VALID,95.8281,VALID,-0.0169808,VALID,16.9326,VALID,143,VALID,0,
2000-07-08, 01:28:00,VALID,917.162,VALID,0,VALID,96.0646,VALID,0.0169808,VALID,16.9522,VALID,143,VALID,0,
2000-07-08, 01:29:00,VALID,917.153,VALID,0,VALID,96.1765,VALID,-0.0339617,VALID,16.9587,VALID,143,VALID,0,
2000-07-08, 01:30:00,VALID,917.152,VALID,0,VALID,96.3596,VALID,-0.0339617,VALID,17.02,VALID,142,VALID,0,
2000-07-08, 01:31:00,VALID,917.16,VALID,0,VALID,95.715,VALID,0,VALID,17.0295,VALID,142,VALID,0,
2000-07-08, 01:32:00,VALID,917.165,VALID,0,VALID,95.3411,VALID,0,VALID,17.0293,VALID,142,VALID,0,
2000-07-08, 01:33:00,VALID,917.155,VALID,0,VALID,95.715,VALID,0.0169808,VALID,17.0489,VALID,142,VALID,0,
2000-07-08, 01:34:00,VALID,917.14,VALID,0,VALID,95.8472,VALID,-0.0169808,VALID,17.0814,VALID,142,VALID,0,
2000-07-08, 01:35:00,VALID,917.131,VALID,0,VALID,95.5687,VALID,-0.0339617,VALID,17.0906,VALID,142,VALID,0,
2000-07-08, 01:36:00,VALID,917.114,VALID,0,VALID,95.5776,VALID,0,VALID,17.107,VALID,142,VALID,0,
2000-07-08, 01:37:00,VALID,917.096,VALID,0,VALID,95.6094,VALID,0,VALID,17.1234,VALID,142,VALID,0,
2000-07-08, 01:38:00,VALID,917.089,VALID,0,VALID,95.6425,VALID,-0.0169808,VALID,17.1358,VALID,149,VALID,0,
2000-07-08, 01:39:00,VALID,917.061,VALID,0,VALID,95.3653,VALID,0,VALID,17.1587,VALID,175,VALID,0,
2000-07-08, 01:40:00,VALID,917.074,VALID,0,VALID,94.7892,VALID,-0.0169808,VALID,17.1559,VALID,198,VALID,0,
2000-07-08, 01:41:00,VALID,917.06,VALID,0,VALID,94.8757,VALID,0.0849042,VALID,17.1158,VALID,204,VALID,0,
2000-07-08, 01:42:00,VALID,917.055,VALID,0,VALID,95.3691,VALID,0.101885,VALID,17.0988,VALID,204,VALID,0,
2000-07-08, 01:43:00,VALID,917.042,VALID,0,VALID,95.1974,VALID,0.0849042,VALID,17.1182,VALID,204,VALID,0,
2000-07-08, 01:44:00,VALID,917.04,VALID,0,VALID,94.3314,VALID,0.101885,VALID,17.1186,VALID,204,VALID,0,
2000-07-08, 01:45:00,VALID,917.046,VALID,0,VALID,93.7096,VALID,0.101885,VALID,17.0767,VALID,204,VALID,0,
2000-07-08, 01:46:00,VALID,917.06,VALID,0,VALID,94.5451,VALID,0.0849042,VALID,17.0478,VALID,204,VALID,0,
2000-07-08, 01:47:00,VALID,917.067,VALID,0,VALID,94.0886,VALID,0.101885,VALID,16.9996,VALID,204,VALID,0,
2000-07-08, 01:48:00,VALID,917.061,VALID,0,VALID,94.1343,VALID,0.101885,VALID,16.8956,VALID,204,VALID,0,
2000-07-08, 01:49:00,VALID,917.053,VALID,0,VALID,94.6455,VALID,0.0849042,VALID,16.8123,VALID,204,VALID,0,
2000-07-08, 01:50:00,VALID,917.051,VALID,0,VALID,94.5057,VALID,0.101885,VALID,16.7185,VALID,204,VALID,0,
2000-07-08, 01:51:00,VALID,917.055,VALID,0,VALID,94.6557,VALID,0.0169808,VALID,16.6251,VALID,204,VALID,0,
2000-07-08, 01:52:00,VALID,917.046,VALID,0,VALID,95.7645,VALID,0.0679233,VALID,16.5859,VALID,204,VALID,0,
2000-07-08, 01:53:00,VALID,917.028,VALID,0,VALID,96.7271,VALID,0.101885,VALID,16.6021,VALID,188,VALID,0,
2000-07-08, 01:54:00,VALID,917.012,VALID,0,VALID,97.0107,VALID,0.0679233,VALID,16.6901,VALID,173,VALID,0,
2000-07-08, 01:55:00,VALID,916.999,VALID,0,VALID,95.5827,VALID,0.0679233,VALID,16.6701,VALID,173,VALID,0,
2000-07-08, 01:56:00,VALID,916.995,VALID,0,VALID,94.9901,VALID,0,VALID,16.5971,VALID,169,VALID,0.120759,
2000-07-08, 01:57:00,VALID,917.004,VALID,0,VALID,95.9947,VALID,-0.0169808,VALID,16.5745,VALID,167,VALID,0.926398,
2000-07-08, 01:58:00,VALID,916.977,VALID,0,VALID,95.7455,VALID,0,VALID,16.5325,VALID,168,VALID,0.858953,
2000-07-08, 01:59:00,VALID,916.967,VALID,0,VALID,95.1949,VALID,-0.0169808,VALID,16.455,VALID,168,VALID,0.536585,
2000-07-08, 02:00:00,VALID,916.958,VALID,0,VALID,95.2801,VALID,0,VALID,16.3904,VALID,169,VALID,0.168945,
2000-07-08, 02:01:00,VALID,916.957,VALID,0,VALID,95.6043,VALID,-0.0169808,VALID,16.3454,VALID,170,VALID,0.0618832,
2000-07-08, 02:02:00,VALID,916.951,VALID,0,VALID,95.9019,VALID,-0.0169808,VALID,16.2904,VALID,170,VALID,0,
2000-07-08, 02:03:00,VALID,916.948,VALID,0,VALID,96.4703,VALID,-0.0169808,VALID,16.2647,VALID,170,VALID,0,
2000-07-08, 02:04:00,VALID,916.942,VALID,0,VALID,96.8187,VALID,-0.0339617,VALID,16.229,VALID,170,VALID,0,
2000-07-08, 02:05:00,VALID,916.929,VALID,0,VALID,97.0005,VALID,-0.0169808,VALID,16.2165,VALID,186,VALID,0,
2000-07-08, 02:06:00,VALID,916.919,VALID,0,VALID,96.9535,VALID,-0.0679233,VALID,16.1582,VALID,204,VALID,0.372656,
2000-07-08, 02:07:00,VALID,916.906,VALID,0,VALID,96.7996,VALID,-0.0509425,VALID,16.1102,VALID,217,VALID,0.757595,
2000-07-08, 02:08:00,VALID,916.902,VALID,0,VALID,96.7958,VALID,-0.0509425,VALID,16.0583,VALID,219,VALID,0.970703,
2000-07-08, 02:09:00,VALID,916.901,VALID,0,VALID,97.1277,VALID,-0.0679233,VALID,16.0418,VALID,218,VALID,0.908053,
2000-07-08, 02:10:00,VALID,916.899,VALID,0,VALID,97.2714,VALID,0,VALID,16.0488,VALID,216,VALID,0.673314,
2000-07-08, 02:11:00,VALID,916.899,VALID,0,VALID,97.6147,VALID,-0.0509425,VALID,16.068,VALID,218,VALID,0.881168,
2000-07-08, 02:12:00,VALID,916.872,VALID,0,VALID,97.7749,VALID,-0.0339617,VALID,16.0904,VALID,221,VALID,0.740076,
2000-07-08, 02:13:00,VALID,916.862,VALID,0,VALID,98.0394,VALID,-0.0339617,VALID,16.1263,VALID,217,VALID,0.621962,
2000-07-08, 02:14:00,VALID,916.847,VALID,0,VALID,98.1552,VALID,0,VALID,16.1683,VALID,217,VALID,0.483108,
2000-07-08, 02:15:00,VALID,916.821,VALID,0,VALID,97.9364,VALID,-0.0169808,VALID,16.1651,VALID,210,VALID,0.347862,
2000-07-08, 02:16:00,VALID,916.808,VALID,0,VALID,97.5283,VALID,-0.0339617,VALID,16.1074,VALID,201,VALID,0.298678,
2000-07-08, 02:17:00,VALID,916.78,VALID,0,VALID,97.5422,VALID,-0.0509425,VALID,16.0521,VALID,200,VALID,0.353766,
2000-07-08, 02:18:00,VALID,916.765,VALID,0,VALID,97.4303,VALID,-0.0169808,VALID,16.0359,VALID,200,VALID,0.17103,
2000-07-08, 02:19:00,VALID,916.748,VALID,0,VALID,97.5613,VALID,-0.0169808,VALID,16.0101,VALID,199,VALID,0,
2000-07-08, 02:20:00,VALID,916.754,VALID,0,VALID,97.2727,VALID,-0.0339617,VALID,15.9522,VALID,179,VALID,0,
2000-07-08, 02:21:00,VALID,916.753,VALID,0,VALID,97.4761,VALID,-0.0169808,VALID,15.9227,VALID,177,VALID,0,
2000-07-08, 02:22:00,VALID,916.758,VALID,0,VALID,97.6262,VALID,0,VALID,15.9322,VALID,164,VALID,0,
2000-07-08, 02:23:00,VALID,916.757,VALID,0,VALID,97.8373,VALID,-0.0169808,VALID,15.9423,VALID,164,VALID,0,
2000-07-08, 02:24:00,VALID,916.765,VALID,0,VALID,98.2607,VALID,-0.0339617,VALID,16.0139,VALID,169,VALID,0,
2000-07-08, 02:25:00,VALID,916.773,VALID,0,VALID,98.6613,VALID,-0.0339617,VALID,16.0975,VALID,180,VALID,0,
2000-07-08, 02:26:00,VALID,916.774,VALID,0,VALID,98.8418,VALID,-0.0169808,VALID,16.1969,VALID,199,VALID,0,
2000-07-08, 02:27:00,VALID,916.794,VALID,0,VALID,98.9143,VALID,0.0169808,VALID,16.3,VALID,205,VALID,0,
2000-07-08, 02:28:00,VALID,916.795,VALID,0,VALID,98.6969,VALID,0.0169808,VALID,16.3228,VALID,207,VALID,0,
2000-07-08, 02:29:00,VALID,916.774,VALID,0,VALID,98.7108,VALID,0,VALID,16.3678,VALID,207,VALID,0,
2000-07-08, 02:30:00,VALID,916.783,VALID,0,VALID,98.6091,VALID,0.0339617,VALID,16.3872,VALID,207,VALID,0,
2000-07-08, 02:31:00,VALID,916.772,VALID,0,VALID,98.2594,VALID,0.0169808,VALID,16.387,VALID,207,VALID,0,
2000-07-08, 02:32:00,VALID,916.769,VALID,0,VALID,97.8601,VALID,0.0169808,VALID,16.3456,VALID,207,VALID,0,
2000-07-08, 02:33:00,VALID,916.743,VALID,0,VALID,98.0801,VALID,0.0169808,VALID,16.3487,VALID,207,VALID,0,
2000-07-08, 02:34:00,VALID,916.732,VALID,0,VALID,98.028,VALID,0.0339617,VALID,16.3771,VALID,190,VALID,0,
2000-07-08, 02:35:00,VALID,916.718,VALID,0,VALID,97.986,VALID,0.0169808,VALID,16.3932,VALID,154,VALID,0,
2000-07-08, 02:36:00,VALID,916.7,VALID,0,VALID,97.616,VALID,0,VALID,16.3906,VALID,170,VALID,0,
2000-07-08, 02:37:00,VALID,916.681,VALID,0,VALID,97.3808,VALID,0.0169808,VALID,16.3777,VALID,169,VALID,0,
2000-07-08, 02:38:00,VALID,916.675,VALID,0,VALID,97.2561,VALID,0.0339617,VALID,16.3777,VALID,161,VALID,0,
2000-07-08, 02:39:00,VALID,916.663,VALID,0,VALID,97.1786,VALID,0.0339617,VALID,16.3904,VALID,168,VALID,0,
2000-07-08, 02:40:00,VALID,916.673,VALID,0,VALID,96.9891,VALID,0.0509425,VALID,16.381,VALID,175,VALID,0,
2000-07-08, 02:41:00,VALID,916.673,VALID,0,VALID,97.4253,VALID,0,VALID,16.4158,VALID,186,VALID,0,
2000-07-08, 02:42:00,VALID,916.673,VALID,0,VALID,97.4583,VALID,0,VALID,16.4905,VALID,186,VALID,0,
2000-07-08, 02:43:00,VALID,916.655,VALID,0,VALID,97.2536,VALID,0.0169808,VALID,16.5389,VALID,189,VALID,0,
2000-07-08, 02:44:00,VALID,916.65,VALID,0,VALID,96.7933,VALID,0.0169808,VALID,16.5424,VALID,196,VALID,0,
2000-07-08, 02:45:00,VALID,916.632,VALID,0,VALID,96.6661,VALID,0.0339617,VALID,16.545,VALID,207,VALID,0,
2000-07-08, 02:46:00,VALID,916.612,VALID,0,VALID,96.3991,VALID,0.0169808,VALID,16.5327,VALID,208,VALID,0,
2000-07-08, 02:47:00,VALID,916.603,VALID,0,VALID,96.099,VALID,0.0339617,VALID,16.4778,VALID,208,VALID,0,
2000-07-08, 02:48:00,VALID,916.604,VALID,0,VALID,96.3724,VALID,0.0169808,VALID,16.4354,VALID,208,VALID,0,
2000-07-08, 02:49:00,VALID,916.601,VALID,0,VALID,96.7221,VALID,0.0339617,VALID,16.4389,VALID,208,VALID,0,
2000-07-08, 02:50:00,VALID,916.599,VALID,0,VALID,96.731,VALID,0.0509425,VALID,16.4163,VALID,206,VALID,0,
2000-07-08, 02:51:00,VALID,916.609,VALID,0,VALID,96.9637,VALID,0.0169808,VALID,16.4096,VALID,206,VALID,0,
2000-07-08, 02:52:00,VALID,916.608,VALID,0,VALID,96.7933,VALID,0.0169808,VALID,16.3967,VALID,206,VALID,0,
2000-07-08, 02:53:00,VALID,916.619,VALID,0,VALID,96.8836,VALID,0,VALID,16.3644,VALID,206,VALID,0,
2000-07-08, 02:54:00,VALID,916.634,VALID,0,VALID,97.2752,VALID,0.0679233,VALID,16.3937,VALID,206,VALID,0,
2000-07-08, 02:55:00,VALID,916.637,VALID,0,VALID,97.6236,VALID,0,VALID,16.432,VALID,208,VALID,0,
2000-07-08, 02:56:00,VALID,916.647,VALID,0,VALID,97.7444,VALID,-0.0679233,VALID,16.5081,VALID,208,VALID,0,
2000-07-08, 02:57:00,VALID,916.646,VALID,0,VALID,97.5982,VALID,-0.0849042,VALID,16.5565,VALID,208,VALID,0,
2000-07-08, 02:58:00,VALID,916.654,VALID,0,VALID,97.3286,VALID,-0.0849042,VALID,16.5628,VALID,210,VALID,0,
2000-07-08, 02:59:00,VALID,916.655,VALID,0,VALID,97.3566,VALID,-0.101885,VALID,16.5852,VALID,214,VALID,0,
2000-07-08, 03:00:00,VALID,916.672,VALID,0,VALID,96.7119,VALID,-0.0849042,VALID,16.5725,VALID,214,VALID,0,
2000-07-08, 03:01:00,VALID,916.678,VALID,0,VALID,97.0705,VALID,-0.0849042,VALID,16.5953,VALID,214,VALID,0,
2000-07-08, 03:02:00,VALID,916.665,VALID,0,VALID,97.0654,VALID,-0.0509425,VALID,16.6306,VALID,214,VALID,0,
2000-07-08, 03:03:00,VALID,916.664,VALID,0,VALID,97.0285,VALID,-0.0509425,VALID,16.6633,VALID,214,VALID,0,
2000-07-08, 03:04:00,VALID,916.651,VALID,0,VALID,96.5491,VALID,-0.101885,VALID,16.6693,VALID,214,VALID,0,
2000-07-08, 03:05:00,VALID,916.643,VALID,0,VALID,96.2185,VALID,-0.0509425,VALID,16.6691,VALID,209,VALID,0,
2000-07-08, 03:06:00,VALID,916.613,VALID,0,VALID,95.7238,VALID,-0.0849042,VALID,16.6336,VALID,195,VALID,0,
2000-07-08, 03:07:00,VALID,916.613,VALID,0,VALID,95.1478,VALID,-0.0849042,VALID,16.569,VALID,195,VALID,0,
2000-07-08, 03:08:00,VALID,916.609,VALID,0,VALID,95.7353,VALID,-0.0679233,VALID,16.5178,VALID,195,VALID,0,
2000-07-08, 03:09:00,VALID,916.588,VALID,0,VALID,96.1384,VALID,-0.0849042,VALID,16.4948,VALID,195,VALID,0,
2000-07-08, 03:10:00,VALID,916.586,VALID,0,VALID,96.2935,VALID,-0.101885,VALID,16.4593,VALID,195,VALID,0,
2000-07-08, 03:11:00,VALID,916.572,VALID,0,VALID,96.8657,VALID,-0.0849042,VALID,16.4788,VALID,195,VALID,0,
2000-07-08, 03:12:00,VALID,916.575,VALID,0,VALID,97.2154,VALID,-0.0509425,VALID,16.5333,VALID,195,VALID,0,
2000-07-08, 03:13:00,VALID,916.575,VALID,0,VALID,97.0705,VALID,-0.0679233,VALID,16.6142,VALID,193,VALID,0,
2000-07-08, 03:14:00,VALID,916.569,VALID,0,VALID,96.6254,VALID,-0.0509425,VALID,16.7174,VALID,186,VALID,0,
2000-07-08, 03:15:00,VALID,916.565,VALID,0,VALID,95.0715,VALID,-0.0339617,VALID,16.7918,VALID,183,VALID,0,
2000-07-08, 03:16:00,VALID,916.581,VALID,0,VALID,93.8164,VALID,-0.0849042,VALID,16.769,VALID,182,VALID,0,
2000-07-08, 03:17:00,VALID,916.58,VALID,0,VALID,94.0949,VALID,-0.0679233,VALID,16.7466,VALID,182,VALID,0,
2000-07-08, 03:18:00,VALID,916.581,VALID,0,VALID,94.9075,VALID,-0.0679233,VALID,16.7339,VALID,182,VALID,0,
2000-07-08, 03:19:00,VALID,916.58,VALID,0,VALID,95.3792,VALID,-0.0679233,VALID,16.7305,VALID,194,VALID,0,
2000-07-08, 03:20:00,VALID,916.572,VALID,0,VALID,94.5145,VALID,-0.101885,VALID,16.7182,VALID,206,VALID,0,
2000-07-08, 03:21:00,VALID,916.57,VALID,0,VALID,94.3823,VALID,-0.0679233,VALID,16.6532,VALID,220,VALID,0,
2000-07-08, 03:22:00,VALID,916.578,VALID,0,VALID,93.8164,VALID,-0.0849042,VALID,16.566,VALID,218,VALID,0.509046,
2000-07-08, 03:23:00,VALID,916.562,VALID,0,VALID,94.4713,VALID,-0.0679233,VALID,16.4857,VALID,221,VALID,0.904046,
2000-07-08, 03:24:00,VALID,916.548,VALID,0,VALID,94.8719,VALID,-0.0679233,VALID,16.4078,VALID,222,VALID,0.654492,
2000-07-08, 03:25:00,VALID,916.533,VALID,0,VALID,94.9774,VALID,-0.0509425,VALID,16.3366,VALID,218,VALID,0.272615,
2000-07-08, 03:26:00,VALID,916.526,VALID,0,VALID,95.1147,VALID,-0.0169808,VALID,16.2744,VALID,240,VALID,0.171453,
2000-07-08, 03:27:00,VALID,916.496,VALID,0,VALID,95.631,VALID,0,VALID,16.2482,VALID,240,VALID,0,
2000-07-08, 03:28:00,VALID,916.5,VALID,0,VALID,96.6915,VALID,0,VALID,16.271,VALID,240,VALID,0,
2000-07-08, 03:29:00,VALID,916.499,VALID,0,VALID,97.3986,VALID,0,VALID,16.3285,VALID,240,VALID,0,
2000-07-08, 03:30:00,VALID,916.491,VALID,0,VALID,97.5537,VALID,0.0509425,VALID,16.4033,VALID,232,VALID,0.0984375,
2000-07-08, 03:31:00,VALID,916.486,VALID,0,VALID,97.3668,VALID,0.0339617,VALID,16.4128,VALID,226,VALID,0.448242,
2000-07-08, 03:32:00,VALID,916.487,VALID,0,VALID,97.6173,VALID,0.0339617,VALID,16.4584,VALID,226,VALID,0.217231,
2000-07-08, 03:33:00,VALID,916.498,VALID,0,VALID,97.3706,VALID,0,VALID,16.4776,VALID,226,VALID,0,
2000-07-08, 03:34:00,VALID,916.51,VALID,0,VALID,96.9395,VALID,0,VALID,16.4453,VALID,223,VALID,0,
2000-07-08, 03:35:00,VALID,916.515,VALID,0,VALID,96.6852,VALID,0,VALID,16.41,VALID,190,VALID,0,
2000-07-08, 03:36:00,VALID,916.523,VALID,0,VALID,96.7793,VALID,-0.0169808,VALID,16.3908,VALID,180,VALID,0,
2000-07-08, 03:37:00,VALID,916.513,VALID,0,VALID,96.9764,VALID,0,VALID,16.3614,VALID,176,VALID,0,
2000-07-08, 03:38:00,VALID,916.498,VALID,0,VALID,97.3693,VALID,0,VALID,16.4036,VALID,176,VALID,0,
2000-07-08, 03:39:00,VALID,916.479,VALID,0,VALID,96.9344,VALID,0,VALID,16.3904,VALID,176,VALID,0,
2000-07-08, 03:40:00,VALID,916.47,VALID,0,VALID,96.6877,VALID,0.0169808,VALID,16.3648,VALID,176,VALID,0,
2000-07-08, 03:41:00,VALID,916.468,VALID,0,VALID,96.661,VALID,0,VALID,16.3263,VALID,176,VALID,0,